Powrót do katalogu

KUIPER-00114

AktywnyŁącznośćLEO
NORAD 65151·PAYLOAD·🇺🇸 United States

Wystrzelony Aug 11, 2025 z Cape Canaveral Space Force Station

Loading…

Następne Przeloty (najbliższe 24 godziny)

TLE

ŚwieżeSource: CelesTrak SupGP

Epoka: Sep 14, 2026, 17:35 UTC

1 65151C 25171V   26257.73269676  .00001881  00000+0  24617-3 0  2579
2 65151  51.8992  59.6422 0000649 119.9007 190.1935 14.79932929    12

Śledź KUIPER-00114 w czasie rzeczywistym z AllMySat

Download on the App Store